Track ONEWEB-0587 now! 10-day predictions ONEWEB-0587 is classified as:
1 54654U 22166N 24326.11172893 .00000044 00000-0 76217-4 0 9995 2 54654 87.9308 358.1131 0001695 90.5839 269.5489 13.21823561 96435